Voltar ao catálogo

GALILEO 6 (262)

AtivoNavegaçãoMEO
NORAD 40129·PAYLOAD·🇪🇺 EU

Lançado Aug 22, 2014 de Guiana Space Centre

Loading…

Próximas Passagens (próximas 24 horas)

TLE

AtualizadoSource: CelesTrak SupGP

Época: Sep 14, 2026, 23:59 UTC

1 40129C 14050B   26257.99979167  .00000000  00000+0  00000+0 0  2570
2 40129  48.7985 268.8301 1688094 183.5733  78.9588  1.85520468    18

Acompanhe GALILEO 6 (262) em tempo real com AllMySat

Download on the App Store